TimeCDT,TemperatureF,Dew PointF,Humidity,Sea Level PressureIn,VisibilityMPH,Wind Direction,Wind SpeedMPH,Gust SpeedMPH,PrecipitationIn,Events,Conditions,WindDirDegrees,DateUTC
12:53 AM,55.9,53.1,90,29.94,7.0,NNW,3.5,-,N/A,,Overcast,340,2012-10-23 05:53:00
1:53 AM,55.0,53.1,93,29.93,6.0,North,4.6,-,N/A,,Overcast,10,2012-10-23 06:53:00
2:10 AM,55.4,51.8,88,29.92,6.0,North,8.1,-,N/A,,Mostly Cloudy,10,2012-10-23 07:10:00
2:19 AM,55.4,51.8,88,29.92,6.0,North,9.2,-,N/A,,Scattered Clouds,10,2012-10-23 07:19:00
2:36 AM,55.4,51.8,88,29.92,7.0,NNE,6.9,-,N/A,,Mostly Cloudy,20,2012-10-23 07:36:00
2:53 AM,55.0,52.0,89,29.92,7.0,NNE,10.4,-,N/A,,Overcast,20,2012-10-23 07:53:00
3:53 AM,54.0,51.1,90,29.92,10.0,NE,6.9,-,N/A,,Overcast,40,2012-10-23 08:53:00
4:21 AM,53.6,51.8,94,29.92,10.0,Calm,Calm,-,N/A,,Overcast,0,2012-10-23 09:21:00
4:53 AM,54.0,51.1,90,29.93,9.0,NNE,3.5,-,N/A,,Overcast,20,2012-10-23 09:53:00
5:14 AM,53.6,51.8,94,29.94,10.0,Calm,Calm,-,N/A,,Overcast,0,2012-10-23 10:14:00
5:53 AM,54.0,51.1,90,29.93,8.0,ENE,5.8,-,N/A,,Overcast,60,2012-10-23 10:53:00
6:20 AM,53.6,51.8,94,29.93,2.5,NE,8.1,-,N/A,,Overcast,50,2012-10-23 11:20:00
6:53 AM,54.0,52.0,93,29.94,1.2,NE,5.8,-,N/A,,Overcast,40,2012-10-23 11:53:00
7:09 AM,53.6,51.8,94,29.93,0.5,NNE,5.8,-,N/A,Fog,Fog,30,2012-10-23 12:09:00
7:28 AM,53.6,53.6,100,29.93,0.2,NE,3.5,-,N/A,Fog,Fog,50,2012-10-23 12:28:00
7:53 AM,54.0,53.1,97,29.93,0.2,NE,5.8,-,N/A,Fog,Fog,40,2012-10-23 12:53:00
8:53 AM,55.0,54.0,96,29.94,0.2,Calm,Calm,-,N/A,Fog,Fog,0,2012-10-23 13:53:00
10:23 AM,55.4,53.6,94,29.96,0.5,Calm,Calm,-,N/A,Fog,Fog,0,2012-10-23 15:23:00
10:53 AM,57.0,55.9,96,29.96,0.8,SSE,3.5,-,N/A,,Overcast,160,2012-10-23 15:53:00
11:06 AM,57.2,57.2,100,29.95,0.8,SE,3.5,-,N/A,Thunderstorm,Overcast,130,2012-10-23 16:06:00
11:21 AM,57.2,55.4,94,29.93,0.8,SE,4.6,-,N/A,,Overcast,130,2012-10-23 16:21:00
11:40 AM,57.2,57.2,100,29.93,1.2,SSE,6.9,-,0.00,Rain,Light Rain,150,2012-10-23 16:40:00
12:05 PM,59.0,57.2,94,29.92,2.5,Calm,Calm,-,0.01,Rain,Light Rain,0,2012-10-23 17:05:00
12:12 PM,59.0,59.0,100,29.92,3.0,Calm,Calm,-,0.01,Rain,Light Rain,0,2012-10-23 17:12:00
12:32 PM,59.0,57.2,94,29.93,2.5,NW,5.8,-,0.02,Rain-Thunderstorm,Light Thunderstorms and Rain,310,2012-10-23 17:32:00
12:53 PM,59.0,57.9,96,29.94,1.5,NNW,5.8,-,0.14,Rain-Thunderstorm,Thunderstorms and Rain,340,2012-10-23 17:53:00
1:12 PM,60.8,57.2,88,29.91,0.8,SE,9.2,-,0.29,Rain-Thunderstorm,Heavy Thunderstorms and Rain,130,2012-10-23 18:12:00
1:19 PM,60.8,59.0,94,29.91,1.2,SSE,6.9,-,0.37,Rain-Thunderstorm,Heavy Thunderstorms and Rain,150,2012-10-23 18:19:00
1:28 PM,60.8,60.8,100,29.92,1.8,SSE,9.2,-,0.42,Rain-Thunderstorm,Heavy Rain,160,2012-10-23 18:28:00
1:33 PM,60.8,59.0,94,29.91,2.0,SE,8.1,-,0.44,Rain-Thunderstorm,Heavy Rain,140,2012-10-23 18:33:00
1:35 PM,60.8,59.0,94,29.90,2.0,SE,9.2,-,0.45,Rain,Rain,130,2012-10-23 18:35:00
1:53 PM,61.0,60.1,97,29.88,5.0,SSE,15.0,21.9,0.49,Rain,Rain,150,2012-10-23 18:53:00
2:38 PM,62.6,60.8,94,29.89,10.0,South,13.8,18.4,0.02,,Mostly Cloudy,180,2012-10-23 19:38:00
2:53 PM,61.0,59.0,93,29.90,10.0,South,12.7,-,0.02,,Overcast,190,2012-10-23 19:53:00
3:38 PM,60.8,57.2,88,29.87,10.0,SSE,8.1,-,0.00,Rain,Light Rain,160,2012-10-23 20:38:00
4:05 PM,60.8,57.2,88,29.87,10.0,SE,8.1,-,0.00,,Overcast,140,2012-10-23 21:05:00
4:14 PM,60.8,57.2,88,29.88,10.0,South,8.1,-,0.00,Rain,Light Rain,170,2012-10-23 21:14:00
4:36 PM,60.8,57.2,88,29.88,5.0,South,9.2,-,0.00,,Overcast,170,2012-10-23 21:36:00
4:53 PM,60.1,57.9,93,29.88,4.0,SSE,4.6,-,0.00,,Overcast,150,2012-10-23 21:53:00
5:12 PM,59.0,57.2,94,29.87,2.5,SE,4.6,-,0.00,Rain,Light Rain,140,2012-10-23 22:12:00
5:53 PM,59.0,57.9,96,29.88,2.0,Variable,3.5,-,0.00,,Overcast,0,2012-10-23 22:53:00
6:10 PM,59.0,57.2,94,29.89,1.2,SSE,4.6,-,N/A,,Overcast,150,2012-10-23 23:10:00
6:27 PM,59.0,57.2,94,29.89,0.5,SE,3.5,-,N/A,Fog,Fog,140,2012-10-23 23:27:00
6:53 PM,57.9,57.0,97,29.90,0.5,SE,3.5,-,N/A,Fog,Fog,130,2012-10-23 23:53:00
7:53 PM,59.0,57.9,96,29.91,0.5,Calm,Calm,-,N/A,Fog,Fog,0,2012-10-24 00:53:00
8:04 PM,59.0,57.2,94,29.90,0.2,Calm,Calm,-,N/A,Fog,Fog,0,2012-10-24 01:04:00
8:53 PM,59.0,57.9,96,29.91,0.2,Calm,Calm,-,N/A,Fog,Fog,0,2012-10-24 01:53:00
9:53 PM,59.0,57.9,96,29.92,0.2,Calm,Calm,-,N/A,Fog,Fog,0,2012-10-24 02:53:00
10:53 PM,57.0,55.9,96,29.91,0.2,ESE,4.6,-,0.01,Fog,Fog,120,2012-10-24 03:53:00
11:33 PM,57.2,57.2,100,29.90,0.5,SSE,4.6,-,N/A,Fog,Fog,150,2012-10-24 04:33:00
11:53 PM,57.9,57.0,97,29.90,0.5,SSE,5.8,-,N/A,Fog,Fog,160,2012-10-24 04:53:00